Ardmore, OK

4:51 PM CDT on March 24, 2017 (GMT -0500)
Ardmore Municipal

Weather History for KADM - February, 2013

Change the Weather History Date:

Monday, February 18, 2013

  Actual Average Record
Temperature  
Mean Temperature 50 °F -  
Max Temperature 62 °F 55 °F 78 °F (2014)
Min Temperature 37 °F 37 °F 21 °F (2006)
Degree Days  
Heating Degree Days 14    
Moisture  
Dew Point 42 °F    
Average Humidity 68    
Maximum Humidity 82    
Minimum Humidity 39    
Precipitation  
Precipitation 0.00 in - - ()
Sea Level Pressure  
Sea Level Pressure 29.88 in    
Wind  
Wind Speed 13 mph (South)    
Max Wind Speed 23 mph    
Max Gust Speed 30 mph    
Visibility 10 miles    
Events      
Averages and records for this station are not official NWS values.
T = Trace of Precipitation, MM = Missing Value Source: NWS Daily Summary

Daily Weather History Graph

Daily Weather History Graph

Search for Another Location

Airport or City:

Trip Planner

Search our weather history database for the weather conditions in past years. The results will help you decide how hot, cold, wet, or windy it might be!

Date:

Astronomy

Feb. 18, 2013 Rise Set
Actual Time 7:09 AM CST 6:14 PM CST
Civil Twilight 6:44 AM CST 6:40 PM CST
Nautical Twilight 6:14 AM CST 7:09 PM CST
Astronomical Twilight 5:45 AM CST 7:38 PM CST
Moon 12:08 PM CST (2/18) 1:43 AM CST (2/18)
Length of Visible Light 11h 56m
Length of Day
11h 05m
First Quarter, 58% of the Moon is Illuminated
Feb 18
First Quarter
Feb 25
Full
Mar 4
Last Quarter
Mar 11
New
Mar 19
First Quarter

Hourly Weather History & Observations

Time (CST) Temp. Windchill Dew Point Humidity Pressure Visibility Wind Dir Wind Speed Gust Speed Precip Events Conditions
12:15 AM 57.2 °F - 42.8 °F 59% 29.84 in 10.0 mi South 15.0 mph 20.7 mph N/A   Clear
12:35 AM 57.2 °F - 44.6 °F 63% 29.84 in 10.0 mi South 13.8 mph 25.3 mph N/A   Clear
12:55 AM 57.2 °F - 44.6 °F 63% 29.83 in 10.0 mi South 13.8 mph 20.7 mph N/A   Clear
1:15 AM 55.4 °F - 44.6 °F 67% 29.83 in 10.0 mi South 15.0 mph 20.7 mph N/A   Clear
1:35 AM 55.4 °F - 44.6 °F 67% 29.82 in 10.0 mi South 15.0 mph 21.9 mph N/A   Clear
1:55 AM 55.4 °F - 44.6 °F 67% 29.81 in 10.0 mi South 12.7 mph 23.0 mph N/A   Clear
2:15 AM 55.4 °F - 44.6 °F 67% 29.81 in 10.0 mi South 15.0 mph 21.9 mph N/A   Scattered Clouds
2:35 AM 55.4 °F - 46.4 °F 72% 29.80 in 10.0 mi South 16.1 mph 20.7 mph N/A   Mostly Cloudy
2:55 AM 55.4 °F - 46.4 °F 72% 29.79 in 10.0 mi South 15.0 mph 20.7 mph N/A   Overcast
3:15 AM 55.4 °F - 46.4 °F 72% 29.78 in 10.0 mi South 15.0 mph - N/A   Overcast
3:35 AM 55.4 °F - 46.4 °F 72% 29.77 in 10.0 mi South 12.7 mph 20.7 mph N/A   Overcast
3:55 AM 55.4 °F - 48.2 °F 77% 29.77 in 10.0 mi South 17.3 mph 20.7 mph N/A   Overcast
4:15 AM 55.4 °F - 48.2 °F 77% 29.76 in 10.0 mi SSE 12.7 mph 24.2 mph N/A   Overcast
4:35 AM 55.4 °F - 48.2 °F 77% 29.76 in 10.0 mi South 11.5 mph - N/A   Overcast
4:55 AM 55.4 °F - 50.0 °F 82% 29.76 in 10.0 mi South 10.4 mph 18.4 mph N/A   Overcast
5:15 AM 55.4 °F - 50.0 °F 82% 29.75 in 10.0 mi South 13.8 mph 19.6 mph N/A   Overcast
5:35 AM 57.2 °F - 50.0 °F 77% 29.74 in 10.0 mi South 16.1 mph 20.7 mph N/A   Mostly Cloudy
2:55 PM 62.6 °F - 37.4 °F 39% 29.84 in 10.0 mi NNW 21.9 mph 29.9 mph N/A   Clear
3:55 PM 60.8 °F - 35.6 °F 39% 29.87 in 10.0 mi NNW 23.0 mph 29.9 mph N/A   Clear
7:55 PM 48.2 °F - 32.0 °F 54% 30.03 in 10.0 mi NW 6.9 mph - N/A   Clear
10:35 PM 39.2 °F - 30.2 °F 70% 30.13 in 10.0 mi Calm Calm - N/A   Clear
10:55 PM 39.2 °F - 30.2 °F 70% 30.14 in 10.0 mi Calm Calm - N/A   Clear
11:15 PM 41.0 °F 39.0 °F 30.2 °F 65% 30.14 in 10.0 mi NW 3.5 mph - N/A   Clear
11:35 PM 39.2 °F 37.0 °F 30.2 °F 70% 30.14 in 10.0 mi NNW 3.5 mph - N/A   Clear
11:55 PM 37.4 °F - 30.2 °F 75% 30.15 in 10.0 mi Calm Calm - N/A   Clear